Volver al catálogo

STARLINK-33595

ActivoComunicacionesVLEO
NORAD 62766·PAYLOAD·🇺🇸 United States

Lanzado Jan 21, 2025 desde Vandenberg Space Force Base

Loading…

Próximos Pases (próximas 24 horas)

TLE

ActualizadoSource: CelesTrak SupGP

Época: Sep 15, 2026, 02:32 UTC

1 62766C 25015J   26258.10604167 -.00024552  00000+0 -72547-3 0  2583
2 62766  53.1571 158.6096 0001260  77.7859  96.4211 15.34399788    19

Sigue STARLINK-33595 en tiempo real con AllMySat

Download on the App Store